Time,TemperatureF,DewpointF,PressureIn,WindDirection,WindDirectionDegrees,WindSpeedMPH,WindSpeedGustMPH,Humidity,HourlyPrecipIn,Conditions,Clouds,dailyrainin,SoftwareType,DateUTC
2013-03-05 00:02:00,56.0,-99.9,30.00,South,187,3.0,4.0,-999,-99.99,,,-99.99,,2013-03-05 06:02:00,
2013-03-05 00:11:00,56.0,-99.9,30.00,South,187,3.0,4.0,-999,-99.99,,,-99.99,,2013-03-05 06:11:00,
2013-03-05 00:22:00,55.0,-99.9,30.00,SSW,205,0.0,3.0,-999,-99.99,,,-99.99,,2013-03-05 06:22:00,
2013-03-05 00:32:00,55.0,-99.9,29.99,East,90,0.0,4.0,-999,-99.99,,,-99.99,,2013-03-05 06:32:00,
2013-03-05 00:42:00,55.0,-99.9,29.99,East,90,0.0,4.0,-999,-99.99,,,-99.99,,2013-03-05 06:42:00,
2013-03-05 00:52:00,55.0,-99.9,29.98,SSW,209,4.0,4.0,-999,-99.99,,,-99.99,,2013-03-05 06:52:00,
2013-03-05 01:01:00,56.0,-99.9,29.98,SSW,195,1.0,5.0,-999,-99.99,,,-99.99,,2013-03-05 07:01:00,
2013-03-05 01:11:00,56.0,-99.9,29.98,SSW,195,1.0,5.0,-999,-99.99,,,-99.99,,2013-03-05 07:11:00,
2013-03-05 01:22:00,56.0,-99.9,29.98,South,188,1.0,5.0,-999,-99.99,,,-99.99,,2013-03-05 07:22:00,
2013-03-05 01:32:00,55.0,-99.9,29.98,South,187,0.0,1.0,-999,-99.99,,,-99.99,,2013-03-05 07:32:00,
2013-03-05 01:42:00,55.0,-99.9,29.98,South,187,0.0,1.0,-999,-99.99,,,-99.99,,2013-03-05 07:42:00,
2013-03-05 01:52:00,54.0,-99.9,29.98,SSE,163,0.0,1.0,-999,-99.99,,,-99.99,,2013-03-05 07:52:00,
2013-03-05 02:02:00,54.0,-99.9,29.98,SE,144,0.0,0.0,-999,-99.99,,,-99.99,,2013-03-05 08:02:00,
2013-03-05 02:11:00,54.0,-99.9,29.98,SE,144,0.0,0.0,-999,-99.99,,,-99.99,,2013-03-05 08:11:00,
2013-03-05 02:21:00,53.0,-99.9,29.99,South,180,0.0,0.0,-999,-99.99,,,-99.99,,2013-03-05 08:21:00,
2013-03-05 02:32:00,53.0,-99.9,29.98,South,180,0.0,0.0,-999,-99.99,,,-99.99,,2013-03-05 08:32:00,
2013-03-05 02:42:00,53.0,-99.9,29.98,South,180,0.0,0.0,-999,-99.99,,,-99.99,,2013-03-05 08:42:00,
2013-03-05 02:52:00,52.0,-99.9,29.98,South,180,0.0,0.0,-999,-99.99,,,-99.99,,2013-03-05 08:52:00,
2013-03-05 03:02:00,52.0,-99.9,29.97,SE,144,0.0,1.0,-999,-99.99,,,-99.99,,2013-03-05 09:02:00,
2013-03-05 03:11:00,52.0,-99.9,29.98,SE,144,0.0,0.0,-999,-99.99,,,-99.99,,2013-03-05 09:11:00,
2013-03-05 03:22:00,52.0,-99.9,29.98,SE,144,0.0,0.0,-999,-99.99,,,-99.99,,2013-03-05 09:22:00,
2013-03-05 03:32:00,51.0,-99.9,29.98,SE,144,0.0,0.0,-999,-99.99,,,-99.99,,2013-03-05 09:32:00,
2013-03-05 03:43:00,51.0,-99.9,29.98,SE,144,0.0,0.0,-999,-99.99,,,-99.99,,2013-03-05 09:43:00,
2013-03-05 03:52:00,51.0,-99.9,29.98,SE,144,0.0,0.0,-999,-99.99,,,-99.99,,2013-03-05 09:52:00,
2013-03-05 04:02:00,51.0,-99.9,29.99,SE,144,0.0,0.0,-999,-99.99,,,-99.99,,2013-03-05 10:02:00,
2013-03-05 04:11:00,51.0,-99.9,29.99,SE,144,0.0,0.0,-999,-99.99,,,-99.99,,2013-03-05 10:11:00,
2013-03-05 04:22:00,51.0,-99.9,29.98,SE,144,0.0,0.0,-999,-99.99,,,-99.99,,2013-03-05 10:22:00,
2013-03-05 04:32:00,51.0,-99.9,29.99,SE,144,0.0,0.0,-999,-99.99,,,-99.99,,2013-03-05 10:32:00,
2013-03-05 04:42:00,51.0,-99.9,29.99,SE,144,0.0,0.0,-999,-99.99,,,-99.99,,2013-03-05 10:42:00,
2013-03-05 04:52:00,51.0,-99.9,30.00,SE,144,0.0,0.0,-999,-99.99,,,-99.99,,2013-03-05 10:52:00,
2013-03-05 05:02:00,51.0,-99.9,29.99,East,81,0.0,0.0,-999,-99.99,,,-99.99,,2013-03-05 11:02:00,
2013-03-05 05:12:00,52.0,-99.9,30.00,East,81,0.0,0.0,-999,-99.99,,,-99.99,,2013-03-05 11:12:00,
2013-03-05 05:22:00,52.0,-99.9,30.00,East,81,0.0,0.0,-999,-99.99,,,-99.99,,2013-03-05 11:22:00,
2013-03-05 05:32:00,52.0,-99.9,30.01,East,81,0.0,0.0,-999,-99.99,,,-99.99,,2013-03-05 11:32:00,
2013-03-05 05:42:00,52.0,-99.9,30.01,East,81,0.0,0.0,-999,-99.99,,,-99.99,,2013-03-05 11:42:00,
2013-03-05 05:52:00,53.0,-99.9,30.01,East,81,0.0,0.0,-999,-99.99,,,-99.99,,2013-03-05 11:52:00,
2013-03-05 06:03:00,53.0,-99.9,30.01,East,81,0.0,0.0,-999,-99.99,,,-99.99,,2013-03-05 12:03:00,
2013-03-05 06:12:00,53.0,-99.9,30.01,East,81,0.0,0.0,-999,-99.99,,,-99.99,,2013-03-05 12:12:00,
2013-03-05 06:22:00,53.0,-99.9,30.01,ESE,123,0.0,2.0,-999,-99.99,,,-99.99,,2013-03-05 12:22:00,
2013-03-05 06:32:00,52.0,-99.9,30.01,ESE,123,0.0,0.0,-999,-99.99,,,-99.99,,2013-03-05 12:32:00,
2013-03-05 06:42:00,52.0,-99.9,30.01,ESE,123,0.0,0.0,-999,-99.99,,,-99.99,,2013-03-05 12:42:00,
2013-03-05 06:53:00,53.0,-99.9,30.01,ESE,123,0.0,0.0,-999,-99.99,,,-99.99,,2013-03-05 12:53:00,
2013-03-05 07:02:00,53.0,-99.9,30.01,SE,135,2.0,3.0,-999,-99.99,,,-99.99,,2013-03-05 13:02:00,
2013-03-05 07:12:00,53.0,-99.9,30.01,SE,135,2.0,3.0,-999,-99.99,,,-99.99,,2013-03-05 13:12:00,
2013-03-05 07:22:00,54.0,-99.9,30.01,SSE,158,1.0,3.0,-999,-99.99,,,-99.99,,2013-03-05 13:22:00,
2013-03-05 07:32:00,55.0,-99.9,30.01,SE,140,2.0,3.0,-999,-99.99,,,-99.99,,2013-03-05 13:32:00,
2013-03-05 07:42:00,55.0,-99.9,30.01,SE,140,2.0,3.0,-999,-99.99,,,-99.99,,2013-03-05 13:42:00,
2013-03-05 07:52:00,56.0,-99.9,30.01,SE,137,0.0,0.0,-999,-99.99,,,-99.99,,2013-03-05 13:52:00,
2013-03-05 08:02:00,58.0,-99.9,30.01,SE,137,0.0,0.0,-999,-99.99,,,-99.99,,2013-03-05 14:02:00,
2013-03-05 08:11:00,58.0,-99.9,30.01,SE,137,0.0,0.0,-999,-99.99,,,-99.99,,2013-03-05 14:11:00,
2013-03-05 08:22:00,59.0,-99.9,30.02,SSE,147,1.0,0.0,-999,-99.99,,,-99.99,,2013-03-05 14:22:00,
2013-03-05 08:32:00,61.0,-99.9,30.02,SSE,160,0.0,0.0,-999,-99.99,,,-99.99,,2013-03-05 14:32:00,
2013-03-05 08:42:00,61.0,-99.9,30.02,SSE,160,0.0,0.0,-999,-99.99,,,-99.99,,2013-03-05 14:42:00,
2013-03-05 08:52:00,62.0,-99.9,30.01,South,170,0.0,2.0,-999,-99.99,,,-99.99,,2013-03-05 14:52:00,
2013-03-05 09:02:00,63.0,-99.9,30.05,WNW,303,2.0,8.0,-999,-99.99,,,-99.99,,2013-03-05 15:02:00,
2013-03-05 09:11:00,63.0,-99.9,30.05,WNW,303,2.0,8.0,-999,-99.99,,,-99.99,,2013-03-05 15:11:00,
2013-03-05 09:22:00,63.0,-99.9,30.07,SSW,205,1.0,10.0,-999,-99.99,,,-99.99,,2013-03-05 15:22:00,
2013-03-05 09:32:00,65.0,-99.9,30.06,NNW,327,5.0,7.0,-999,-99.99,,,-99.99,,2013-03-05 15:32:00,
2013-03-05 09:42:00,65.0,-99.9,30.06,NNW,327,5.0,7.0,-999,-99.99,,,-99.99,,2013-03-05 15:42:00,
2013-03-05 09:52:00,65.0,-99.9,30.06,WSW,243,3.0,11.0,-999,-99.99,,,-99.99,,2013-03-05 15:52:00,
2013-03-05 10:02:00,67.0,-99.9,30.05,WSW,250,1.0,13.0,-999,-99.99,,,-99.99,,2013-03-05 16:02:00,
2013-03-05 10:11:00,67.0,-99.9,30.05,WSW,250,1.0,13.0,-999,-99.99,,,-99.99,,2013-03-05 16:11:00,
2013-03-05 10:22:00,68.0,-99.9,30.04,WSW,246,4.0,12.0,-999,-99.99,,,-99.99,,2013-03-05 16:22:00,
2013-03-05 10:32:00,67.0,-99.9,30.05,NW,310,3.0,10.0,-999,-99.99,,,-99.99,,2013-03-05 16:32:00,
2013-03-05 10:42:00,67.0,-99.9,30.05,NW,310,3.0,10.0,-999,-99.99,,,-99.99,,2013-03-05 16:42:00,
2013-03-05 10:52:00,68.0,-99.9,30.05,SW,232,12.0,12.0,-999,-99.99,,,-99.99,,2013-03-05 16:52:00,
2013-03-05 11:01:00,69.0,-99.9,30.05,SW,229,4.0,15.0,-999,-99.99,,,-99.99,,2013-03-05 17:01:00,
2013-03-05 11:11:00,69.0,-99.9,30.05,SW,229,4.0,15.0,-999,-99.99,,,-99.99,,2013-03-05 17:11:00,
2013-03-05 11:22:00,69.0,-99.9,30.03,West,270,9.0,15.0,-999,-99.99,,,-99.99,,2013-03-05 17:22:00,
2013-03-05 11:32:00,71.0,-99.9,30.01,SW,219,6.0,17.0,-999,-99.99,,,-99.99,,2013-03-05 17:32:00,
2013-03-05 11:42:00,71.0,-99.9,30.01,SW,219,6.0,17.0,-999,-99.99,,,-99.99,,2013-03-05 17:42:00,
2013-03-05 11:53:00,71.0,-99.9,30.01,NNE,26,4.0,19.0,-999,-99.99,,,-99.99,,2013-03-05 17:53:00,
2013-03-05 12:02:00,72.0,-99.9,30.00,NNE,14,4.0,23.0,-999,-99.99,,,-99.99,,2013-03-05 18:02:00,
2013-03-05 12:11:00,72.0,-99.9,30.00,NNE,14,4.0,23.0,-999,-99.99,,,-99.99,,2013-03-05 18:11:00,
2013-03-05 12:22:00,74.0,-99.9,29.99,West,261,7.0,18.0,-999,-99.99,,,-99.99,,2013-03-05 18:22:00,
2013-03-05 12:32:00,72.0,-99.9,29.98,SSE,168,1.0,24.0,-999,-99.99,,,-99.99,,2013-03-05 18:32:00,
2013-03-05 12:42:00,72.0,-99.9,29.98,SSE,168,1.0,24.0,-999,-99.99,,,-99.99,,2013-03-05 18:42:00,
2013-03-05 12:53:00,72.0,-99.9,29.98,SSE,160,7.0,18.0,-999,-99.99,,,-99.99,,2013-03-05 18:53:00,
2013-03-05 13:02:00,71.0,-99.9,29.97,WNW,298,12.0,22.0,-999,-99.99,,,-99.99,,2013-03-05 19:02:00,
2013-03-05 13:11:00,71.0,-99.9,29.97,WNW,298,12.0,22.0,-999,-99.99,,,-99.99,,2013-03-05 19:11:00,
2013-03-05 13:22:00,72.0,-99.9,29.96,WSW,258,9.0,19.0,-999,-99.99,,,-99.99,,2013-03-05 19:22:00,
2013-03-05 13:32:00,70.0,-99.9,29.96,WNW,289,9.0,20.0,-999,-99.99,,,-99.99,,2013-03-05 19:32:00,
2013-03-05 13:42:00,70.0,-99.9,29.96,WNW,289,9.0,20.0,-999,-99.99,,,-99.99,,2013-03-05 19:42:00,
2013-03-05 13:52:00,70.0,-99.9,29.95,SW,232,9.0,21.0,-999,-99.99,,,-99.99,,2013-03-05 19:52:00,
2013-03-05 14:02:00,70.0,-99.9,29.95,NW,317,6.0,19.0,-999,-99.99,,,-99.99,,2013-03-05 20:02:00,
2013-03-05 14:11:00,68.0,-99.9,29.95,West,270,13.0,21.0,-999,-99.99,,,-99.99,,2013-03-05 20:11:00,
2013-03-05 14:22:00,68.0,-99.9,29.95,West,270,13.0,21.0,-999,-99.99,,,-99.99,,2013-03-05 20:22:00,
2013-03-05 14:32:00,68.0,-99.9,29.94,WNW,293,6.0,18.0,-999,-99.99,,,-99.99,,2013-03-05 20:32:00,
2013-03-05 14:42:00,68.0,-99.9,29.94,WNW,293,6.0,18.0,-999,-99.99,,,-99.99,,2013-03-05 20:42:00,
2013-03-05 14:52:00,68.0,-99.9,29.94,West,278,6.0,16.0,-999,-99.99,,,-99.99,,2013-03-05 20:52:00,
2013-03-05 15:02:00,70.0,-99.9,29.93,SW,219,5.0,17.0,-999,-99.99,,,-99.99,,2013-03-05 21:02:00,
2013-03-05 15:11:00,70.0,-99.9,29.93,SW,219,5.0,17.0,-999,-99.99,,,-99.99,,2013-03-05 21:11:00,
2013-03-05 15:22:00,69.0,-99.9,29.93,SW,232,7.0,15.0,-999,-99.99,,,-99.99,,2013-03-05 21:22:00,
2013-03-05 15:32:00,69.0,-99.9,29.93,West,267,11.0,18.0,-999,-99.99,,,-99.99,,2013-03-05 21:32:00,
2013-03-05 15:42:00,69.0,-99.9,29.93,West,267,11.0,18.0,-999,-99.99,,,-99.99,,2013-03-05 21:42:00,
2013-03-05 15:52:00,71.0,-99.9,29.91,SE,144,3.0,22.0,-999,-99.99,,,-99.99,,2013-03-05 21:52:00,
2013-03-05 16:01:00,69.0,-99.9,29.91,NW,313,4.0,12.0,-999,-99.99,,,-99.99,,2013-03-05 22:01:00,
2013-03-05 16:12:00,69.0,-99.9,29.91,NW,313,4.0,12.0,-999,-99.99,,,-99.99,,2013-03-05 22:12:00,
2013-03-05 16:22:00,69.0,-99.9,29.91,WSW,243,3.0,12.0,-999,-99.99,,,-99.99,,2013-03-05 22:22:00,
2013-03-05 16:32:00,67.0,-99.9,29.92,West,275,5.0,18.0,-999,-99.99,,,-99.99,,2013-03-05 22:32:00,
2013-03-05 16:42:00,67.0,-99.9,29.92,West,275,5.0,18.0,-999,-99.99,,,-99.99,,2013-03-05 22:42:00,
2013-03-05 16:52:00,67.0,-99.9,29.91,West,278,2.0,17.0,-999,-99.99,,,-99.99,,2013-03-05 22:52:00,
2013-03-05 17:01:00,67.0,-99.9,29.92,West,275,8.0,19.0,-999,-99.99,,,-99.99,,2013-03-05 23:01:00,
2013-03-05 17:11:00,67.0,-99.9,29.92,West,275,8.0,19.0,-999,-99.99,,,-99.99,,2013-03-05 23:11:00,
2013-03-05 17:22:00,66.0,-99.9,29.92,NW,324,6.0,13.0,-999,-99.99,,,-99.99,,2013-03-05 23:22:00,
2013-03-05 17:32:00,66.0,-99.9,29.92,SSW,202,4.0,15.0,-999,-99.99,,,-99.99,,2013-03-05 23:32:00,
2013-03-05 17:42:00,66.0,-99.9,29.92,SSW,202,4.0,15.0,-999,-99.99,,,-99.99,,2013-03-05 23:42:00,
2013-03-05 17:53:00,66.0,-99.9,29.93,West,265,6.0,16.0,-999,-99.99,,,-99.99,,2013-03-05 23:53:00,
2013-03-05 18:02:00,65.0,-99.9,29.95,WNW,302,12.0,19.0,-999,-99.99,,,-99.99,,2013-03-06 00:02:00,
2013-03-05 18:11:00,65.0,-99.9,29.95,WNW,302,12.0,19.0,-999,-99.99,,,-99.99,,2013-03-06 00:11:00,
2013-03-05 18:22:00,65.0,-99.9,29.95,NW,319,4.0,15.0,-999,-99.99,,,-99.99,,2013-03-06 00:22:00,
2013-03-05 18:32:00,64.0,-99.9,29.96,WNW,292,10.0,13.0,-999,-99.99,,,-99.99,,2013-03-06 00:32:00,
2013-03-05 18:42:00,64.0,-99.9,29.96,WNW,292,10.0,13.0,-999,-99.99,,,-99.99,,2013-03-06 00:42:00,
2013-03-05 18:52:00,64.0,-99.9,29.97,West,281,3.0,10.0,-999,-99.99,,,-99.99,,2013-03-06 00:52:00,
2013-03-05 19:02:00,63.0,-99.9,29.98,NW,323,3.0,15.0,-999,-99.99,,,-99.99,,2013-03-06 01:02:00,
2013-03-05 19:11:00,63.0,-99.9,29.98,NW,323,3.0,15.0,-999,-99.99,,,-99.99,,2013-03-06 01:11:00,
2013-03-05 19:22:00,62.0,-99.9,29.99,NNW,331,6.0,13.0,-999,-99.99,,,-99.99,,2013-03-06 01:22:00,
2013-03-05 19:32:00,61.0,-99.9,30.00,WNW,302,11.0,17.0,-999,-99.99,,,-99.99,,2013-03-06 01:32:00,
2013-03-05 19:42:00,61.0,-99.9,30.00,WNW,302,11.0,17.0,-999,-99.99,,,-99.99,,2013-03-06 01:42:00,
2013-03-05 19:52:00,60.0,-99.9,30.01,North,2,6.0,21.0,-999,-99.99,,,-99.99,,2013-03-06 01:52:00,
2013-03-05 20:01:00,59.0,-99.9,30.02,North,4,2.0,17.0,-999,-99.99,,,-99.99,,2013-03-06 02:01:00,
2013-03-05 20:11:00,59.0,-99.9,30.02,North,4,2.0,17.0,-999,-99.99,,,-99.99,,2013-03-06 02:11:00,
2013-03-05 20:22:00,57.0,-99.9,30.03,NW,326,9.0,18.0,-999,-99.99,,,-99.99,,2013-03-06 02:22:00,
2013-03-05 20:32:00,57.0,-99.9,30.04,NNW,329,14.0,20.0,-999,-99.99,,,-99.99,,2013-03-06 02:32:00,
2013-03-05 20:42:00,57.0,-99.9,30.04,NNW,329,14.0,20.0,-999,-99.99,,,-99.99,,2013-03-06 02:42:00,
2013-03-05 20:52:00,55.0,-99.9,30.05,NW,317,7.0,21.0,-999,-99.99,,,-99.99,,2013-03-06 02:52:00,
2013-03-05 21:02:00,54.0,-99.9,30.06,NNW,337,14.0,21.0,-999,-99.99,,,-99.99,,2013-03-06 03:02:00,
2013-03-05 21:12:00,54.0,-99.9,30.06,NNW,337,14.0,21.0,-999,-99.99,,,-99.99,,2013-03-06 03:12:00,
2013-03-05 21:22:00,53.0,-99.9,30.07,NNW,337,10.0,18.0,-999,-99.99,,,-99.99,,2013-03-06 03:22:00,
2013-03-05 21:32:00,52.0,-99.9,30.08,North,4,8.0,23.0,-999,-99.99,,,-99.99,,2013-03-06 03:32:00,
2013-03-05 21:42:00,52.0,-99.9,30.08,North,4,8.0,23.0,-999,-99.99,,,-99.99,,2013-03-06 03:42:00,
2013-03-05 21:53:00,51.0,-99.9,30.09,NW,320,7.0,15.0,-999,-99.99,,,-99.99,,2013-03-06 03:53:00,
2013-03-05 22:02:00,50.0,-99.9,30.09,NNW,331,9.0,15.0,-999,-99.99,,,-99.99,,2013-03-06 04:02:00,
2013-03-05 22:11:00,50.0,-99.9,30.09,NNW,331,9.0,15.0,-999,-99.99,,,-99.99,,2013-03-06 04:11:00,
2013-03-05 22:22:00,50.0,-99.9,30.09,NW,326,14.0,16.0,-999,-99.99,,,-99.99,,2013-03-06 04:22:00,
2013-03-05 22:32:00,49.0,-99.9,30.10,NNW,334,8.0,12.0,-999,-99.99,,,-99.99,,2013-03-06 04:32:00,
2013-03-05 22:42:00,49.0,-99.9,30.10,NNW,334,8.0,12.0,-999,-99.99,,,-99.99,,2013-03-06 04:42:00,
2013-03-05 22:52:00,48.0,-99.9,30.10,NNW,337,2.0,11.0,-999,-99.99,,,-99.99,,2013-03-06 04:52:00,
2013-03-05 23:02:00,48.0,-99.9,30.10,NNW,341,5.0,10.0,-999,-99.99,,,-99.99,,2013-03-06 05:02:00,
2013-03-05 23:12:00,48.0,-99.9,30.10,NNW,337,5.0,12.0,-999,-99.99,,,-99.99,,2013-03-06 05:12:00,
2013-03-05 23:23:00,48.0,-99.9,30.10,NNW,337,5.0,12.0,-999,-99.99,,,-99.99,,2013-03-06 05:23:00,
2013-03-05 23:32:00,48.0,-99.9,30.10,North,4,6.0,9.0,-999,-99.99,,,-99.99,,2013-03-06 05:32:00,
2013-03-05 23:42:00,48.0,-99.9,30.10,North,4,6.0,9.0,-999,-99.99,,,-99.99,,2013-03-06 05:42:00,
2013-03-05 23:52:00,47.0,-99.9,30.10,NW,324,4.0,6.0,-999,-99.99,,,-99.99,,2013-03-06 05:52:00,